QPF
0.00 0.00 0.00 0.00 0.00 0.00 0.01 0.01 0.02 0.03 0.03 0.04 0.06 0.11 0.14 0.15 0.19 0.18 0.12 0.13 0.13 0.09 0.11 0.10 0.04 0.03 0.03 0.03 0.02 0.03 0.04 0.05 0.06 0.07 0.09 0.07 0.06 0.05 0.08 0.09 0.10 0.11 0.12 0.13
0.00 0.00 0.00 0.00 0.00 0.00 0.00 0.01 0.02 0.02 0.03 0.04 0.07 0.12 0.13 0.16 0.20 0.21 0.14 0.12 0.11 0.12 0.08 0.05 0.03 0.02 0.02 0.02 0.02 0.02 0.02 0.04 0.03 0.04 0.06 0.08 0.07 0.06 0.07 0.08 0.08 0.09 0.10 0.13
0.00 0.00 0.00 0.00 0.00 0.00 0.00 0.00 0.01 0.01 0.01 0.04 0.09 0.11 0.14 0.14 0.18 0.17 0.15 0.13 0.13 0.10 0.05 0.04 0.03 0.02 0.02 0.02 0.01 0.01 0.01 0.02 0.02 0.02 0.03 0.04 0.04 0.04 0.06 0.05 0.06 0.07 0.08 0.11
0.00 0.00 0.00 0.00 0.00 0.00 0.01 0.00 0.00 0.01 0.01 0.05 0.08 0.08 0.10 0.10 0.12 0.13 0.17 0.21 0.17 0.12 0.06 0.05 0.03 0.03 0.03 0.02 0.02 0.01 0.00 0.01 0.01 0.01 0.01 0.02 0.02 0.04 0.05 0.06 0.07 0.07 0.08 0.08
0.00 0.00 0.00 0.00 0.00 0.00 0.00 0.00 0.00 0.00 0.01 0.02 0.04 0.07 0.09 0.11 0.11 0.13 0.20 0.24 0.22 0.16 0.10 0.07 0.05 0.04 0.03 0.02 0.01 0.01 0.00 0.00 0.00 0.00 0.01 0.01 0.02 0.03 0.05 0.05 0.07 0.08 0.08 0.07
0.00 0.00 0.00 0.00 0.00 0.00 0.00 0.00 0.00 0.00 0.00 0.01 0.03 0.06 0.10 0.09 0.14 0.20 0.23 0.24 0.21 0.17 0.12 0.08 0.07 0.05 0.04 0.02 0.01 0.01 0.00 0.00 0.00 0.00 0.01 0.01 0.02 0.02 0.03 0.04 0.06 0.08 0.08 0.06
0.00 0.01 0.00 0.00 0.00 0.00 0.00 0.01 0.01 0.02 0.03 0.02 0.03 0.06 0.12 0.15 0.16 0.19 0.27 0.32 0.24 0.19 0.16 0.11 0.07 0.06 0.04 0.03 0.02 0.02 0.01 0.01 0.00 0.00 0.01 0.01 0.01 0.01 0.02 0.03 0.06 0.08 0.08 0.06
0.01 0.03 0.01 0.00 0.00 0.00 0.01 0.01 0.01 0.02 0.03 0.04 0.07 0.09 0.12 0.17 0.19 0.16 0.23 0.26 0.19 0.17 0.15 0.14 0.10 0.08 0.05 0.04 0.03 0.03 0.02 0.01 0.01 0.01 0.00 0.00 0.00 0.00 0.01 0.02 0.03 0.06 0.08 0.08
0.01 0.01 0.01 0.00 0.01 0.01 0.01 0.01 0.01 0.01 0.02 0.03 0.07 0.10 0.13 0.20 0.18 0.20 0.24 0.26 0.21 0.20 0.17 0.16 0.12 0.09 0.08 0.05 0.03 0.03 0.02 0.02 0.02 0.02 0.01 0.00 0.00 0.00 0.00 0.01 0.02 0.03 0.04 0.05
0.01 0.01 0.00 0.01 0.01 0.02 0.03 0.02 0.02 0.03 0.04 0.05 0.06 0.10 0.16 0.17 0.21 0.19 0.30 0.32 0.22 0.19 0.17 0.15 0.13 0.10 0.08 0.05 0.04 0.03 0.03 0.02 0.02 0.01 0.01 0.01 0.00 0.01 0.01 0.00 0.01 0.01 0.02 0.03
0.01 0.01 0.01 0.01 0.02 0.03 0.02 0.02 0.05 0.06 0.05 0.08 0.10 0.12 0.16 0.17 0.24 0.22 0.18 0.18 0.17 0.15 0.13 0.13 0.11 0.11 0.10 0.07 0.04 0.03 0.03 0.02 0.02 0.01 0.01 0.02 0.01 0.01 0.01 0.00 0.00 0.01 0.01 0.01
0.02 0.01 0.01 0.01 0.02 0.02 0.02 0.03 0.04 0.04 0.04 0.05 0.06 0.10 0.14 0.22 0.27 0.23 0.17 0.13 0.13 0.11 0.10 0.08 0.08 0.09 0.09 0.07 0.06 0.04 0.04 0.04 0.03 0.02 0.02 0.02 0.02 0.01 0.00 0.00 0.00 0.01 0.01 0.00
0.02 0.02 0.03 0.03 0.03 0.02 0.02 0.02 0.02 0.02 0.03 0.04 0.05 0.07 0.14 0.22 0.20 0.19 0.14 0.12 0.11 0.09 0.07 0.06 0.07 0.07 0.08 0.08 0.08 0.07 0.07 0.06 0.05 0.04 0.03 0.02 0.02 0.01 0.01 0.01 0.01 0.00 0.00 0.00
0.01 0.02 0.03 0.04 0.04 0.02 0.02 0.02 0.02 0.01 0.03 0.03 0.04 0.06 0.09 0.12 0.17 0.15 0.11 0.08 0.07 0.04 0.04 0.04 0.04 0.05 0.06 0.07 0.09 0.09 0.08 0.07 0.06 0.06 0.05 0.02 0.02 0.01 0.01 0.00 0.00 0.00 0.00 0.00
0.00 0.02 0.02 0.01 0.02 0.02 0.02 0.02 0.02 0.02 0.01 0.02 0.03 0.03 0.04 0.05 0.07 0.07 0.05 0.05 0.05 0.05 0.04 0.03 0.03 0.03 0.04 0.04 0.06 0.06 0.05 0.05 0.05 0.05 0.04 0.03 0.02 0.01 0.01 0.01 0.00 0.00 0.00 0.00
0.01 0.01 0.02 0.02 0.02 0.01 0.02 0.02 0.02 0.02 0.01 0.01 0.02 0.04 0.04 0.05 0.05 0.06 0.06 0.06 0.06 0.04 0.03 0.03 0.02 0.03 0.03 0.03 0.04 0.05 0.04 0.04 0.05 0.06 0.05 0.03 0.02 0.02 0.01 0.01 0.01 0.00 0.00 0.00
0.01 0.02 0.04 0.04 0.03 0.02 0.04 0.03 0.01 0.01 0.01 0.02 0.03 0.03 0.03 0.03 0.03 0.04 0.04 0.04 0.04 0.03 0.03 0.03 0.02 0.02 0.03 0.03 0.03 0.04 0.04 0.03 0.04 0.06 0.05 0.03 0.03 0.02 0.02 0.01 0.01 0.01 0.00 0.00
0.01 0.01 0.04 0.05 0.05 0.06 0.05 0.03 0.02 0.02 0.02 0.01 0.02 0.03 0.02 0.02 0.02 0.04 0.05 0.04 0.03 0.03 0.03 0.02 0.02 0.01 0.02 0.03 0.03 0.04 0.04 0.03 0.03 0.04 0.04 0.03 0.02 0.02 0.02 0.02 0.01 0.01 0.01 0.01
0.01 0.02 0.04 0.05 0.06 0.08 0.06 0.03 0.03 0.03 0.03 0.02 0.03 0.03 0.03 0.02 0.03 0.04 0.06 0.05 0.05 0.04 0.03 0.03 0.02 0.01 0.02 0.02 0.03 0.03 0.03 0.03 0.03 0.04 0.04 0.02 0.02 0.01 0.01 0.02 0.01 0.01 0.01 0.01
0.01 0.02 0.04 0.05 0.08 0.07 0.06 0.03 0.02 0.02 0.04 0.04 0.05 0.03 0.02 0.02 0.02 0.02 0.02 0.03 0.04 0.03 0.03 0.03 0.03 0.02 0.02 0.02 0.02 0.02 0.03 0.03 0.04 0.03 0.03 0.02 0.02 0.02 0.02 0.01 0.01 0.01 0.01 0.01
0.02 0.03 0.04 0.05 0.06 0.06 0.03 0.02 0.01 0.03 0.03 0.04 0.04 0.02 0.01 0.01 0.01 0.01 0.01 0.01 0.02 0.02 0.02 0.02 0.02 0.03 0.03 0.04 0.03 0.03 0.03 0.04 0.05 0.05 0.05 0.04 0.03 0.02 0.01 0.01 0.01 0.01 0.01 0.01
0.02 0.04 0.05 0.06 0.06 0.05 0.02 0.01 0.02 0.02 0.01 0.02 0.02 0.01 0.01 0.00 0.00 0.00 0.00 0.01 0.01 0.01 0.01 0.01 0.02 0.02 0.02 0.03 0.03 0.03 0.03 0.03 0.03 0.04 0.03 0.02 0.02 0.01 0.01 0.01 0.01 0.01 0.01 0.01
0.02 0.02 0.03 0.03 0.03 0.03 0.02 0.01 0.02 0.02 0.01 0.01 0.01 0.01 0.01 0.01 0.01 0.00 0.00 0.00 0.00 0.01 0.01 0.01 0.02 0.02 0.03 0.03 0.04 0.03 0.03 0.04 0.04 0.05 0.03 0.02 0.02 0.02 0.01 0.01 0.01 0.01 0.01 0.00
0.04 0.02 0.01 0.01 0.02 0.01 0.00 0.01 0.01 0.01 0.01 0.01 0.01 0.01 0.01 0.00 0.01 0.00 0.00 0.00 0.00 0.00 0.00 0.01 0.01 0.01 0.02 0.03 0.03 0.03 0.03 0.03 0.03 0.03 0.03 0.02 0.01 0.01 0.01 0.01 0.01 0.01 0.00 0.00
0.03 0.01 0.01 0.01 0.01 0.01 0.00 0.01 0.01 0.01 0.01 0.01 0.01 0.01 0.01 0.00 0.01 0.01 0.00 0.01 0.00 0.01 0.01 0.01 0.00 0.01 0.01 0.01 0.01 0.01 0.01 0.02 0.02 0.02 0.02 0.01 0.01 0.01 0.01 0.00 0.00 0.00 0.00 0.00
0.02 0.01 0.01 0.02 0.01 0.01 0.01 0.03 0.01 0.01 0.01 0.01 0.00 0.01 0.00 0.01 0.01 0.01 0.01 0.01 0.01 0.01 0.01 0.01 0.01 0.01 0.02 0.03 0.03 0.02 0.02 0.02 0.02 0.01 0.02 0.02 0.02 0.01 0.01 0.01 0.00 0.00 0.00 0.00
MSLP
1012.92 1013.41 1013.67 1013.72 1013.61 1013.41 1013.21 1013.11 1013.15 1013.34 1013.65 1014.01 1014.35 1014.61 1014.73 1014.72 1014.59 1014.41 1014.24 1014.15 1014.18 1014.35 1014.65 1015.04 1015.45 1015.82 1016.12 1016.31 1016.41 1016.43 1016.43 1016.43 1016.49 1016.61 1016.79 1017.00 1017.23 1017.42 1017.55 1017.60 1017.58 1017.50 1017.39 1017.31
1012.98 1013.29 1013.38 1013.29 1013.09 1012.88 1012.75 1012.78 1012.98 1013.35 1013.82 1014.30 1014.71 1014.99 1015.08 1014.99 1014.77 1014.49 1014.23 1014.08 1014.08 1014.26 1014.58 1015.00 1015.45 1015.88 1016.21 1016.45 1016.57 1016.62 1016.63 1016.64 1016.69 1016.79 1016.94 1017.11 1017.28 1017.41 1017.48 1017.48 1017.42 1017.33 1017.24 1017.18
1012.81 1012.95 1012.89 1012.70 1012.47 1012.30 1012.28 1012.48 1012.89 1013.47 1014.13 1014.76 1015.25 1015.54 1015.59 1015.42 1015.08 1014.67 1014.30 1014.05 1013.98 1014.11 1014.42 1014.86 1015.35 1015.82 1016.21 1016.50 1016.68 1016.78 1016.82 1016.86 1016.91 1017.00 1017.11 1017.24 1017.36 1017.44 1017.46 1017.43 1017.36 1017.28 1017.21 1017.18
1012.52 1012.52 1012.35 1012.11 1011.89 1011.81 1011.95 1012.35 1012.99 1013.79 1014.64 1015.41 1015.99 1016.29 1016.30 1016.01 1015.54 1014.98 1014.46 1014.08 1013.91 1013.97 1014.25 1014.68 1015.20 1015.71 1016.17 1016.53 1016.78 1016.94 1017.03 1017.09 1017.15 1017.23 1017.32 1017.41 1017.48 1017.52 1017.52 1017.48 1017.41 1017.33 1017.28 1017.28
1012.27 1012.17 1011.94 1011.68 1011.52 1011.56 1011.87 1012.48 1013.34 1014.34 1015.37 1016.26 1016.89 1017.19 1017.13 1016.74 1016.12 1015.41 1014.74 1014.22 1013.93 1013.90 1014.12 1014.54 1015.07 1015.63 1016.15 1016.58 1016.90 1017.12 1017.26 1017.35 1017.41 1017.48 1017.54 1017.60 1017.64 1017.66 1017.64 1017.60 1017.54 1017.48 1017.46 1017.47
1012.19 1012.04 1011.80 1011.57 1011.49 1011.65 1012.12 1012.90 1013.94 1015.10 1016.24 1017.20 1017.86 1018.13 1018.00 1017.51 1016.77 1015.92 1015.10 1014.45 1014.05 1013.94 1014.10 1014.50 1015.03 1015.62 1016.19 1016.68 1017.06 1017.34 1017.52 1017.63 1017.70 1017.75 1017.79 1017.82 1017.83 1017.84 1017.82 1017.78 1017.74 1017.71 1017.69 1017.72
1012.39 1012.23 1012.01 1011.83 1011.83 1012.10 1012.69 1013.60 1014.73 1015.97 1017.16 1018.14 1018.78 1019.01 1018.81 1018.23 1017.40 1016.45 1015.53 1014.78 1014.30 1014.11 1014.23 1014.59 1015.12 1015.72 1016.32 1016.85 1017.28 1017.60 1017.80 1017.93 1018.00 1018.03 1018.05 1018.06 1018.06 1018.05 1018.04 1018.01 1017.99 1017.98 1017.98 1018.00
1012.87 1012.74 1012.56 1012.45 1012.52 1012.86 1013.51 1014.46 1015.61 1016.84 1018.00 1018.94 1019.53 1019.70 1019.45 1018.82 1017.94 1016.95 1016.00 1015.21 1014.68 1014.45 1014.52 1014.86 1015.36 1015.96 1016.56 1017.11 1017.56 1017.90 1018.12 1018.25 1018.31 1018.33 1018.33 1018.32 1018.32 1018.31 1018.30 1018.30 1018.29 1018.29 1018.30 1018.32
1013.57 1013.48 1013.36 1013.32 1013.44 1013.81 1014.45 1015.36 1016.45 1017.60 1018.66 1019.50 1020.01 1020.13 1019.86 1019.24 1018.38 1017.42 1016.50 1015.72 1015.20 1014.96 1015.01 1015.31 1015.79 1016.35 1016.94 1017.47 1017.92 1018.25 1018.47 1018.59 1018.65 1018.66 1018.64 1018.63 1018.61 1018.61 1018.62 1018.63 1018.64 1018.65 1018.66 1018.67
1014.35 1014.33 1014.28 1014.29 1014.44 1014.79 1015.38 1016.19 1017.14 1018.14 1019.06 1019.77 1020.20 1020.29 1020.03 1019.47 1018.71 1017.86 1017.03 1016.35 1015.88 1015.67 1015.71 1015.98 1016.40 1016.92 1017.45 1017.94 1018.35 1018.66 1018.86 1018.98 1019.02 1019.02 1019.00 1018.98 1018.97 1018.97 1018.99 1019.01 1019.04 1019.06 1019.07 1019.07
1015.07 1015.13 1015.15 1015.21 1015.37 1015.69 1016.19 1016.85 1017.63 1018.44 1019.19 1019.78 1020.13 1020.22 1020.02 1019.58 1018.98 1018.30 1017.65 1017.10 1016.73 1016.57 1016.62 1016.85 1017.22 1017.66 1018.11 1018.54 1018.89 1019.16 1019.33 1019.42 1019.45 1019.44 1019.41 1019.39 1019.38 1019.39 1019.41 1019.45 1019.48 1019.51 1019.52 1019.52
1015.62 1015.77 1015.87 1015.98 1016.15 1016.42 1016.82 1017.33 1017.93 1018.55 1019.13 1019.60 1019.90 1020.01 1019.92 1019.65 1019.25 1018.80 1018.36 1017.99 1017.75 1017.65 1017.71 1017.91 1018.21 1018.56 1018.92 1019.25 1019.54 1019.74 1019.87 1019.94 1019.95 1019.92 1019.89 1019.86 1019.84 1019.85 1019.87 1019.91 1019.95 1019.99 1020.00 1020.00
1015.96 1016.19 1016.37 1016.54 1016.73 1016.97 1017.28 1017.66 1018.09 1018.54 1018.97 1019.35 1019.63 1019.79 1019.82 1019.74 1019.58 1019.37 1019.16 1018.99 1018.88 1018.87 1018.94 1019.10 1019.32 1019.58 1019.84 1020.07 1020.27 1020.42 1020.50 1020.52 1020.51 1020.46 1020.41 1020.36 1020.33 1020.33 1020.35 1020.38 1020.43 1020.47 1020.49 1020.50
1016.11 1016.43 1016.70 1016.94 1017.16 1017.38 1017.62 1017.89 1018.19 1018.51 1018.83 1019.13 1019.41 1019.64 1019.81 1019.92 1019.99 1020.02 1020.03 1020.04 1020.07 1020.13 1020.21 1020.34 1020.48 1020.65 1020.81 1020.95 1021.07 1021.14 1021.17 1021.16 1021.11 1021.03 1020.95 1020.88 1020.82 1020.79 1020.80 1020.83 1020.87 1020.92 1020.96 1020.97
1016.16 1016.55 1016.91 1017.22 1017.49 1017.72 1017.92 1018.11 1018.31 1018.53 1018.77 1019.03 1019.31 1019.61 1019.91 1020.19 1020.46 1020.69 1020.90 1021.07 1021.21 1021.32 1021.42 1021.51 1021.60 1021.68 1021.75 1021.82 1021.86 1021.87 1021.85 1021.80 1021.71 1021.60 1021.48 1021.36 1021.27 1021.21 1021.19 1021.21 1021.26 1021.31 1021.37 1021.41
1016.21 1016.67 1017.09 1017.47 1017.78 1018.03 1018.22 1018.37 1018.51 1018.66 1018.84 1019.07 1019.36 1019.70 1020.09 1020.51 1020.93 1021.32 1021.67 1021.95 1022.18 1022.33 1022.44 1022.50 1022.54 1022.57 1022.58 1022.58 1022.57 1022.54 1022.48 1022.39 1022.26 1022.11 1021.95 1021.79 1021.66 1021.56 1021.52 1021.52 1021.57 1021.64 1021.71 1021.77
1016.35 1016.84 1017.32 1017.74 1018.10 1018.36 1018.55 1018.68 1018.78 1018.88 1019.01 1019.22 1019.51 1019.88 1020.33 1020.82 1021.33 1021.82 1022.25 1022.61 1022.89 1023.07 1023.18 1023.23 1023.23 1023.22 1023.20 1023.17 1023.13 1023.07 1022.99 1022.87 1022.72 1022.53 1022.33 1022.14 1021.96 1021.84 1021.77 1021.76 1021.81 1021.89 1021.99 1022.08
1016.61 1017.12 1017.61 1018.06 1018.43 1018.71 1018.90 1019.01 1019.08 1019.15 1019.26 1019.43 1019.71 1020.08 1020.54 1021.06 1021.61 1022.13 1022.60 1022.99 1023.28 1023.47 1023.57 1023.61 1023.61 1023.59 1023.56 1023.52 1023.48 1023.42 1023.34 1023.21 1023.05 1022.84 1022.62 1022.40 1022.20 1022.05 1021.97 1021.96 1022.01 1022.11 1022.24 1022.35
1016.97 1017.46 1017.94 1018.38 1018.75 1019.03 1019.21 1019.31 1019.36 1019.41 1019.49 1019.64 1019.89 1020.24 1020.69 1021.19 1021.73 1022.24 1022.70 1023.08 1023.36 1023.54 1023.64 1023.68 1023.68 1023.66 1023.65 1023.63 1023.62 1023.58 1023.51 1023.40 1023.25 1023.05 1022.82 1022.59 1022.39 1022.24 1022.16 1022.15 1022.22 1022.34 1022.48 1022.62
1017.36 1017.80 1018.25 1018.66 1019.00 1019.26 1019.43 1019.51 1019.56 1019.59 1019.66 1019.79 1020.02 1020.34 1020.75 1021.22 1021.71 1022.19 1022.61 1022.95 1023.20 1023.36 1023.45 1023.49 1023.50 1023.51 1023.52 1023.54 1023.56 1023.57 1023.54 1023.46 1023.34 1023.17 1022.96 1022.76 1022.57 1022.43 1022.37 1022.38 1022.46 1022.60 1022.76 1022.91
1017.68 1018.07 1018.46 1018.82 1019.12 1019.35 1019.50 1019.58 1019.62 1019.66 1019.73 1019.86 1020.07 1020.37 1020.75 1021.17 1021.61 1022.03 1022.40 1022.69 1022.91 1023.04 1023.12 1023.15 1023.18 1023.21 1023.25 1023.31 1023.38 1023.43 1023.45 1023.43 1023.35 1023.23 1023.07 1022.91 1022.76 1022.66 1022.62 1022.66 1022.76 1022.91 1023.08 1023.23
1017.85 1018.19 1018.52 1018.82 1019.07 1019.27 1019.40 1019.49 1019.54 1019.60 1019.69 1019.84 1020.06 1020.35 1020.70 1021.09 1021.49 1021.86 1022.18 1022.42 1022.59 1022.70 1022.75 1022.79 1022.82 1022.86 1022.93 1023.03 1023.13 1023.23 1023.30 1023.34 1023.32 1023.26 1023.17 1023.07 1022.97 1022.92 1022.92 1022.99 1023.11 1023.27 1023.44 1023.59
1017.84 1018.12 1018.40 1018.65 1018.86 1019.03 1019.16 1019.26 1019.34 1019.44 1019.57 1019.76 1020.00 1020.31 1020.66 1021.04 1021.40 1021.73 1022.01 1022.21 1022.35 1022.42 1022.46 1022.48 1022.51 1022.56 1022.64 1022.75 1022.88 1023.02 1023.14 1023.22 1023.27 1023.28 1023.26 1023.23 1023.20 1023.20 1023.25 1023.34 1023.48 1023.64 1023.80 1023.93
1017.65 1017.89 1018.11 1018.32 1018.51 1018.66 1018.80 1018.92 1019.05 1019.20 1019.40 1019.64 1019.93 1020.27 1020.64 1021.01 1021.37 1021.68 1021.93 1022.10 1022.21 1022.26 1022.28 1022.28 1022.29 1022.33 1022.41 1022.53 1022.67 1022.82 1022.97 1023.10 1023.21 1023.28 1023.33 1023.37 1023.41 1023.47 1023.55 1023.67 1023.81 1023.97 1024.11 1024.23
1017.31 1017.52 1017.71 1017.89 1018.06 1018.22 1018.38 1018.54 1018.72 1018.94 1019.19 1019.50 1019.85 1020.23 1020.63 1021.02 1021.38 1021.69 1021.93 1022.09 1022.18 1022.21 1022.20 1022.19 1022.18 1022.20 1022.26 1022.36 1022.49 1022.65 1022.82 1022.98 1023.12 1023.25 1023.36 1023.46 1023.56 1023.67 1023.79 1023.92 1024.07 1024.21 1024.33 1024.41
1016.88 1017.07 1017.25 1017.42 1017.59 1017.76 1017.94 1018.15 1018.39 1018.66 1018.98 1019.34 1019.75 1020.18 1020.61 1021.02 1021.40 1021.71 1021.95 1022.11 1022.19 1022.22 1022.20 1022.16 1022.13 1022.13 1022.16 1022.23 1022.34 1022.49 1022.66 1022.83 1023.01 1023.17 1023.33 1023.48 1023.62 1023.77 1023.91 1024.05 1024.19 1024.31 1024.40 1024.46
Thickness
5732 5716 5709 5717 5722 5723 5722 5717 5713 5719 5732 5726 5718 5714 5717 5720 5720 5716 5715 5715 5713 5711 5712 5713 5712 5712 5710 5708 5705 5703 5702 5701 5700 5697 5694 5692 5690 5689 5688 5687 5687 5687 5686 5686
5711 5708 5725 5732 5732 5728 5722 5713 5709 5717 5729 5722 5711 5707 5712 5715 5716 5716 5714 5712 5710 5707 5706 5706 5706 5705 5703 5701 5699 5697 5695 5694 5694 5692 5690 5687 5684 5682 5681 5681 5680 5680 5679 5679
5704 5719 5737 5733 5728 5723 5720 5714 5713 5713 5718 5716 5705 5694 5698 5703 5709 5711 5711 5710 5707 5706 5703 5701 5700 5698 5697 5695 5693 5691 5688 5688 5687 5686 5684 5681 5678 5675 5673 5672 5672 5672 5672 5672
5714 5730 5734 5728 5726 5725 5712 5728 5725 5718 5703 5689 5696 5675 5688 5694 5694 5700 5701 5701 5701 5701 5700 5698 5695 5692 5690 5688 5687 5684 5681 5680 5680 5679 5677 5674 5670 5666 5665 5664 5663 5664 5664 5664
5714 5728 5727 5723 5728 5730 5723 5732 5725 5718 5700 5684 5686 5676 5678 5689 5686 5690 5696 5697 5697 5698 5695 5693 5690 5687 5684 5682 5678 5676 5673 5672 5672 5671 5670 5667 5664 5661 5659 5657 5656 5656 5656 5657
5724 5736 5734 5733 5740 5739 5733 5723 5713 5700 5685 5668 5679 5673 5671 5678 5685 5692 5695 5696 5694 5692 5689 5686 5684 5680 5676 5673 5670 5668 5666 5664 5663 5662 5661 5659 5657 5654 5651 5649 5648 5648 5648 5648
5712 5724 5734 5739 5727 5728 5721 5696 5673 5668 5658 5661 5679 5673 5670 5684 5692 5694 5693 5692 5690 5685 5682 5680 5675 5671 5668 5666 5663 5661 5658 5655 5655 5654 5652 5650 5649 5647 5644 5642 5641 5640 5639 5640
5692 5696 5721 5730 5723 5714 5710 5695 5669 5659 5654 5658 5672 5667 5673 5688 5694 5695 5693 5688 5684 5678 5675 5672 5669 5666 5663 5659 5656 5653 5650 5647 5646 5644 5642 5641 5640 5638 5636 5635 5634 5632 5631 5632
5690 5694 5723 5731 5732 5722 5705 5691 5691 5671 5665 5656 5660 5668 5676 5683 5684 5685 5683 5679 5674 5671 5668 5665 5660 5659 5655 5651 5648 5646 5642 5639 5637 5635 5633 5632 5631 5629 5628 5627 5626 5625 5625 5625
5703 5695 5711 5725 5726 5718 5711 5699 5679 5666 5653 5647 5656 5660 5660 5669 5670 5672 5672 5669 5666 5664 5661 5658 5654 5650 5647 5643 5640 5638 5635 5632 5629 5627 5625 5623 5622 5620 5619 5618 5618 5617 5617 5617
5705 5689 5695 5705 5699 5697 5699 5692 5679 5664 5660 5648 5642 5650 5673 5671 5670 5667 5665 5662 5659 5657 5654 5650 5646 5643 5639 5636 5633 5629 5626 5624 5621 5618 5616 5615 5613 5612 5611 5610 5609 5609 5609 5609
5698 5683 5676 5688 5703 5709 5701 5693 5680 5664 5659 5655 5646 5649 5675 5672 5667 5664 5660 5656 5653 5650 5646 5642 5638 5635 5630 5627 5624 5620 5618 5615 5612 5610 5607 5605 5604 5603 5601 5600 5600 5600 5600 5600
5695 5676 5662 5667 5677 5691 5690 5692 5686 5673 5658 5649 5642 5648 5668 5665 5661 5658 5653 5648 5645 5641 5638 5633 5629 5626 5622 5618 5616 5613 5609 5606 5604 5601 5598 5596 5594 5593 5592 5591 5591 5591 5591 5591
5699 5673 5664 5658 5664 5678 5681 5686 5686 5673 5653 5650 5652 5652 5655 5654 5651 5649 5644 5641 5637 5633 5629 5624 5619 5616 5613 5610 5608 5605 5601 5598 5596 5592 5589 5586 5585 5585 5584 5583 5582 5582 5582 5582
5690 5671 5675 5677 5684 5685 5684 5684 5684 5676 5668 5656 5654 5652 5651 5650 5648 5644 5640 5635 5630 5625 5621 5616 5611 5607 5604 5602 5599 5596 5593 5590 5587 5584 5581 5578 5578 5577 5576 5575 5574 5573 5573 5573
5681 5672 5672 5670 5680 5681 5677 5680 5679 5675 5671 5662 5656 5649 5653 5650 5645 5638 5633 5629 5623 5618 5613 5609 5604 5600 5597 5595 5591 5588 5585 5582 5579 5576 5574 5572 5570 5569 5567 5566 5565 5564 5563 5563
5675 5669 5661 5656 5670 5672 5659 5668 5670 5667 5668 5662 5650 5647 5646 5639 5636 5630 5626 5622 5617 5611 5606 5602 5597 5593 5590 5587 5584 5580 5577 5575 5572 5569 5567 5565 5563 5561 5559 5558 5556 5555 5554 5554
5675 5666 5655 5652 5656 5643 5656 5674 5673 5663 5659 5659 5653 5647 5642 5636 5630 5626 5621 5616 5611 5606 5601 5595 5590 5586 5583 5580 5577 5574 5571 5568 5565 5562 5559 5557 5555 5553 5551 5550 5548 5547 5546 5545
5684 5670 5654 5644 5641 5644 5659 5668 5666 5655 5647 5653 5648 5642 5636 5631 5624 5617 5616 5613 5607 5601 5596 5590 5586 5581 5577 5574 5571 5568 5565 5562 5558 5555 5553 5551 5549 5546 5544 5542 5541 5539 5538 5538
5681 5673 5657 5647 5641 5637 5653 5670 5674 5659 5639 5649 5647 5639 5633 5628 5614 5610 5611 5608 5602 5597 5591 5586 5581 5576 5571 5568 5565 5562 5558 5555 5552 5550 5548 5545 5543 5541 5538 5537 5535 5534 5532 5531
5666 5662 5653 5645 5640 5645 5663 5671 5670 5644 5638 5648 5645 5638 5632 5624 5617 5612 5608 5603 5598 5592 5587 5582 5576 5571 5567 5563 5560 5556 5553 5550 5548 5546 5543 5541 5538 5536 5534 5532 5530 5529 5527 5525
5661 5654 5648 5644 5637 5641 5665 5665 5655 5647 5650 5647 5641 5635 5628 5621 5616 5610 5604 5598 5593 5587 5582 5577 5571 5566 5562 5559 5556 5552 5549 5547 5545 5542 5539 5537 5535 5533 5531 5528 5526 5525 5522 5520
5665 5661 5653 5649 5646 5656 5664 5662 5660 5655 5648 5644 5638 5632 5626 5619 5612 5606 5600 5594 5589 5584 5578 5573 5568 5563 5559 5557 5554 5550 5547 5545 5543 5539 5536 5534 5532 5530 5528 5525 5523 5521 5519 5516
5670 5670 5658 5651 5654 5658 5660 5660 5658 5655 5649 5644 5638 5631 5625 5617 5610 5604 5597 5591 5586 5581 5576 5571 5565 5561 5557 5554 5552 5549 5547 5544 5541 5537 5534 5532 5529 5527 5525 5522 5520 5518 5516 5514
5671 5668 5656 5650 5654 5655 5655 5656 5655 5651 5647 5642 5636 5631 5624 5617 5609 5603 5596 5590 5585 5580 5575 5570 5564 5560 5557 5554 5551 5549 5546 5543 5539 5535 5533 5530 5527 5524 5522 5519 5517 5516 5514 5513
5670 5664 5655 5650 5656 5652 5651 5655 5655 5649 5644 5640 5634 5628 5623 5617 5610 5603 5596 5591 5585 5580 5574 5569 5565 5561 5558 5555 5552 5549 5547 5543 5539 5535 5532 5528 5525 5523 5521 5518 5516 5516 5515 5515